Regional Weather Roundup
Issued by NWS Jackson, KY

Home | Current Version | Previous Version | Text Only | Print | Product List | Glossary On
Versions: 1 2 3 4 5 6 7 8 9 10 11 12 13 14 15 16 17 18 19 20 21 22 23 24 25 26 27 28
000
ASUS43 KJKL 240010
RWRJKL

EAST KENTUCKY HOURLY WEATHER ROUNDUP
NATIONAL WEATHER SERVICE JACKSON KY
800 PM EDT FRI JUN 23 2017

NOTE: "FAIR" INDICATES FEW OR NO CLOUDS BELOW 12,000 FEET WITH
NO SIGNIFICANT WEATHER AND/OR OBSTRUCTIONS TO VISIBILITY.

* THESE REPORTS ARE NOT UNDER NWS QUALITY CONTROL AND MAY NOT
  REPORT WEATHER SUCH AS PRECIPITATION AND FOG.

KYZ079-080-083-085-087-088-110-112-115-119-120-240100
...EASTERN KENTUCKY...

CITY           SKY/WX    TMP DP  RH WIND       PRES   REMARKS
JACKSON        LGT RAIN  73  70  90 VRB3      29.69F
6HR MIN TEMP:  73; 6HR MAX TEMP:  81; 6HR PCP:  0.25;

LONDON         LGT RAIN  74  69  85 SW15G28   29.70R
6HR MIN TEMP:  74; 6HR MAX TEMP:  81; 6HR PCP:  0.16;

SOMERSET*      HVY RAIN  68  68 100 W9G37     29.75R
MONTICELLO*    LGT RAIN  73  71  93 W26G38    29.75R FOG
6HR MIN TEMP:  73; 6HR MAX TEMP:  83; 6HR PCP:  0.31;

WILLIAMSBURG*  CLOUDY    72  72 100 S12G20    29.72S
MIDDLESBORO*   CLOUDY    75  70  86 S9G24     29.76R
6HR MIN TEMP:  74; 6HR MAX TEMP:  86; 6HR PCP:  0.02;

HARLAN APT*    CLOUDY    77  63  61 SE7       29.75S
PIKE CO APT*   LGT RAIN  77  67  69 SE5       29.72F
BIG SANDY APT* LGT RAIN  73  73 100 E5        29.71F
6HR MIN TEMP:  73; 6HR MAX TEMP:  82;

MOREHEAD APT*  HVY RAIN  68  66  94 N10G22    29.74R VSB 1/2
$$

KYZ035-036-041-042-044-050-067-078-099-240100
...CENTRAL KENTUCKY...

CITY           SKY/WX    TMP DP  RH WIND       PRES   REMARKS
MT STERLING*   HVY RAIN  68  68 100 NE7G22    29.73R VSB 1
FLEMING/MASON* RAIN      65  65 100 E7        29.72F
DANVILLE*      RAIN      68  66  94 NW10G22   29.71R
LEXINGTON      HVY RAIN  68  66  93 NE16      29.68R FOG
6HR MIN TEMP:  68; 6HR MAX TEMP:  84; 6HR PCP:  2.96;

FRANKFORT      LGT RAIN  70  67  90 N7        29.67R
6HR MIN TEMP:  70; 6HR MAX TEMP:  83; 6HR PCP:  1.93;

LOUISVILLE     CLOUDY    74  73  97 NW7       29.70R
6HR MIN TEMP:  72; 6HR MAX TEMP:  85; 6HR PCP:  1.13;

GLASGOW*       CLOUDY    73  73 100 W7        29.78R
BOWLING GREEN  CLOUDY    77  75  93 W7        29.77R
6HR MIN TEMP:  73; 6HR MAX TEMP:  81; 6HR PCP:  0.93;

$$

KYZ091>093-OHZ055-061-077-WVZ005-015-034-035-042-240100
...SOUTHERN OHIO/WEST VIRGINIA...

CITY           SKY/WX    TMP DP  RH WIND       PRES   REMARKS
COVINGTON      RAIN      68  68 100 E5        29.70F FOG
COLUMBUS       RAIN      69  69 100 S8        29.71S
DAYTON         CLOUDY    68  67  96 S7        29.73R
WILMINGTON     LGT RAIN  66  66 100 CALM      29.72F
HUNTINGTON     HVY RAIN  68  66  93 N13G24    29.73R VSB 1
CHARLESTON     LGT RAIN  74  70  87 W6        29.72F FOG
PINEVILLE*     MOCLDY    74  69  87 MISG      29.81F
BECKLEY        CLOUDY    76  64  66 S8        29.81F
BLUEFIELD      CLOUDY    76  59  55 S8        29.86F
LOGAN CO APT*  LGT RAIN  75  70  83 CALM      29.76S
$$

VAZ002-007-008-TNZ017-027-036-066-071-240100
...SOUTHWEST VIRGINIA/EAST TENNESSEE...

CITY           SKY/WX    TMP DP  RH WIND       PRES   REMARKS
WISE*          LGT RAIN  77  63  61 S6        29.83F
JONESVILLE*    CLOUDY    81  66  61 S6        29.76F
ABINGDON*      MOCLDY    83  62  48 SW10G16   29.82F
BRISTOL        CLOUDY    85  60  42 S10       29.77F
MORRISTOWN*    CLOUDY    84  63  48 SW20G25   29.75S
SEVIERVILLE*   MOCLDY    84  63  48 SW21      29.75R
KNOXVILLE      LGT RAIN  77  69  76 SW28G35   29.78R
LAFOLLETTE*    MOCLDY    73  70  88 SW13G20   29.80R FOG
OAK RIDGE      RAIN      74  72  93 VRB6      29.81R FOG
CROSSVILLE     LGT RAIN  72  70  93 W16G25    29.87R FOG
NASHVILLE      PTSUNNY   82  74  76 VRB5      29.80R
$$

...KEY TO REMARKS...
VSB - VISIBILITY IN MILES
WCI - WIND CHILL INDEX
HX  - HEAT INDEX

$$




USA.gov is the U.S. government's official web portal to all federal, state and local government web resources and services.